Location: Batang Balui
(2.7000°N, 113.7833°E)
Time: 19:56:35
(UTC+00:00)

VELOX 1 - Pass Details

Date: 08 April 2023
Orbit: 617 x 630 km, 98.4° (Epoch: 01 June)

Event Time Altitude Azimuth Distance (km) Brightness Sun altitude
Rises 21:51:17 0° 149° (SSE) 2,913 ? -8.4°
Reaches altitude 10° 21:53:43 10° 137° (SE) 2,001 ? -7.8°
Maximum altitude 21:57:29 29° 78° (ENE) 1,155 ? -6.9°
Drops below altitude 10° 22:01:13 10° 18° (NNE) 1,987 ? -6.0°
Sets 22:03:36 0° 6° (N) 2,888 ? -5.4°
